Time,TemperatureF,DewpointF,PressureIn,WindDirection,WindDirectionDegrees,WindSpeedMPH,WindSpeedGustMPH,Humidity,HourlyPrecipIn,Conditions,Clouds,dailyrainin,SolarRadiationWatts/m^2,SoftwareType,DateUTC
2013-11-06 00:02:00,43.9,44.4,30.35,WNW,302,0.0,4.0,36,0.00,,,0.00,0.0,meteohub,2013-11-06 05:02:00,
2013-11-06 00:07:00,43.9,44.4,30.35,West,267,3.0,4.0,36,0.00,,,0.00,0.0,meteohub,2013-11-06 05:07:00,
2013-11-06 00:12:00,43.3,44.4,30.34,NNE,17,0.0,4.0,36,0.00,,,0.00,0.0,meteohub,2013-11-06 05:12:00,
2013-11-06 00:17:00,43.2,44.4,30.34,SSW,207,0.0,3.0,36,0.00,,,0.00,0.0,meteohub,2013-11-06 05:17:00,
2013-11-06 00:22:00,43.0,44.4,30.34,NNW,328,0.0,3.0,36,0.00,,,0.00,0.0,meteohub,2013-11-06 05:22:00,
2013-11-06 00:27:00,42.6,44.4,30.34,NNW,343,1.0,3.0,36,0.00,,,0.00,0.0,meteohub,2013-11-06 05:27:00,
2013-11-06 00:32:00,42.8,44.4,30.35,WNW,294,1.0,3.0,36,0.00,,,0.00,0.0,meteohub,2013-11-06 05:32:00,
2013-11-06 00:37:00,43.0,44.4,30.34,SW,215,4.0,4.0,36,0.00,,,0.00,0.0,meteohub,2013-11-06 05:37:00,
2013-11-06 00:42:00,43.2,45.1,30.33,SE,131,0.0,5.0,37,0.00,,,0.00,0.0,meteohub,2013-11-06 05:42:00,
2013-11-06 00:47:00,43.3,44.4,30.33,SSE,148,1.0,5.0,36,0.00,,,0.00,0.0,meteohub,2013-11-06 05:47:00,
2013-11-06 00:52:00,43.5,45.1,30.33,SSW,205,0.0,5.0,37,0.00,,,0.00,0.0,meteohub,2013-11-06 05:52:00,
2013-11-06 00:57:00,43.9,45.1,30.33,SSW,205,0.0,3.0,37,0.00,,,0.00,0.0,meteohub,2013-11-06 05:57:00,
2013-11-06 01:02:00,44.1,45.1,30.33,SSW,205,0.0,3.0,37,0.00,,,0.00,0.0,meteohub,2013-11-06 06:02:00,
2013-11-06 01:07:00,44.2,45.1,30.33,SSW,205,0.0,2.0,37,0.00,,,0.00,0.0,meteohub,2013-11-06 06:07:00,
2013-11-06 01:12:00,44.4,45.1,30.33,SSW,205,0.0,0.0,37,0.00,,,0.00,0.0,meteohub,2013-11-06 06:12:00,
2013-11-06 01:17:00,44.6,45.1,30.32,SSW,205,0.0,0.0,37,0.00,,,0.00,0.0,meteohub,2013-11-06 06:17:00,
2013-11-06 01:22:00,44.4,45.1,30.32,SSW,205,0.0,0.0,37,0.00,,,0.00,0.0,meteohub,2013-11-06 06:22:00,
2013-11-06 01:27:00,44.4,45.1,30.32,SSW,205,0.0,0.0,37,0.00,,,0.00,0.0,meteohub,2013-11-06 06:27:00,
2013-11-06 01:32:00,44.4,45.1,30.32,SSW,205,0.0,0.0,37,0.00,,,0.00,0.0,meteohub,2013-11-06 06:32:00,
2013-11-06 01:37:00,44.2,45.1,30.32,SW,232,0.0,0.0,37,0.00,,,0.00,0.0,meteohub,2013-11-06 06:37:00,
2013-11-06 01:42:00,44.2,45.1,30.32,SW,232,0.0,3.0,37,0.00,,,0.00,0.0,meteohub,2013-11-06 06:42:00,
2013-11-06 01:47:00,44.2,45.1,30.31,SW,232,0.0,3.0,37,0.00,,,0.00,0.0,meteohub,2013-11-06 06:47:00,
2013-11-06 01:52:00,44.2,45.1,30.31,SW,232,0.0,2.0,37,0.00,,,0.00,0.0,meteohub,2013-11-06 06:52:00,
2013-11-06 01:57:00,44.2,45.1,30.31,SW,232,0.0,0.0,37,0.00,,,0.00,0.0,meteohub,2013-11-06 06:57:00,
2013-11-06 02:02:00,44.8,45.1,30.31,SW,232,0.0,0.0,37,0.00,,,0.00,0.0,meteohub,2013-11-06 07:02:00,
2013-11-06 02:12:00,44.8,45.1,30.30,SW,232,0.0,0.0,37,0.00,,,0.00,0.0,meteohub,2013-11-06 07:12:00,
2013-11-06 02:17:00,44.6,45.1,30.30,SW,232,0.0,0.0,37,0.00,,,0.00,0.0,meteohub,2013-11-06 07:17:00,
2013-11-06 02:22:00,44.4,45.1,30.30,SW,232,0.0,0.0,37,0.00,,,0.00,0.0,meteohub,2013-11-06 07:22:00,
2013-11-06 02:27:00,45.0,45.1,30.30,SW,229,0.0,0.0,37,0.00,,,0.00,0.0,meteohub,2013-11-06 07:27:00,
2013-11-06 02:32:00,45.1,45.1,30.30,SSW,211,0.0,2.0,37,0.00,,,0.00,0.0,meteohub,2013-11-06 07:32:00,
2013-11-06 02:37:00,45.5,45.1,30.30,SSW,211,0.0,2.0,37,0.00,,,0.00,0.0,meteohub,2013-11-06 07:37:00,
2013-11-06 02:42:00,46.0,45.1,30.30,SSW,202,0.0,2.0,37,0.00,,,0.00,0.0,meteohub,2013-11-06 07:42:00,
2013-11-06 02:47:00,46.8,45.1,30.30,ESE,123,1.0,1.0,37,0.00,,,0.00,0.0,meteohub,2013-11-06 07:47:00,
2013-11-06 02:52:00,47.7,45.1,30.30,SE,130,0.0,4.0,37,0.00,,,0.00,0.0,meteohub,2013-11-06 07:52:00,
2013-11-06 02:57:00,48.0,45.1,30.29,SE,125,0.0,4.0,37,0.00,,,0.00,0.0,meteohub,2013-11-06 07:57:00,
2013-11-06 03:02:00,48.0,45.1,30.30,ESE,121,1.0,4.0,37,0.00,,,0.00,0.0,meteohub,2013-11-06 08:02:00,
2013-11-06 03:07:00,48.0,45.1,30.29,ESE,121,1.0,4.0,37,0.00,,,0.00,0.0,meteohub,2013-11-06 08:07:00,
2013-11-06 03:12:00,48.2,45.1,30.29,SE,128,2.0,4.0,37,0.00,,,0.00,0.0,meteohub,2013-11-06 08:12:00,
2013-11-06 03:17:00,48.2,45.1,30.28,SE,124,1.0,4.0,37,0.00,,,0.00,0.0,meteohub,2013-11-06 08:17:00,
2013-11-06 03:22:00,48.4,45.1,30.28,ESE,123,3.0,4.0,37,0.00,,,0.00,0.0,meteohub,2013-11-06 08:22:00,
2013-11-06 03:27:00,48.4,45.1,30.27,SE,137,4.0,5.0,37,0.00,,,0.00,0.0,meteohub,2013-11-06 08:27:00,
2013-11-06 03:32:00,48.4,45.1,30.27,SE,136,2.0,5.0,37,0.00,,,0.00,0.0,meteohub,2013-11-06 08:32:00,
2013-11-06 03:37:00,48.6,45.1,30.27,SE,143,0.0,5.0,37,0.00,,,0.00,0.0,meteohub,2013-11-06 08:37:00,
2013-11-06 03:42:00,48.6,45.1,30.27,SE,146,3.0,4.0,37,0.00,,,0.00,0.0,meteohub,2013-11-06 08:42:00,
2013-11-06 03:47:00,48.7,45.1,30.27,ESE,111,0.0,5.0,37,0.00,,,0.00,0.0,meteohub,2013-11-06 08:47:00,
2013-11-06 03:52:00,48.7,45.1,30.27,SE,136,4.0,6.0,37,0.00,,,0.00,0.0,meteohub,2013-11-06 08:52:00,
2013-11-06 03:57:00,48.7,45.9,30.27,SE,124,0.0,8.0,38,0.00,,,0.00,0.0,meteohub,2013-11-06 08:57:00,
2013-11-06 04:02:00,48.7,45.9,30.27,ESE,119,0.0,8.0,38,0.00,,,0.00,0.0,meteohub,2013-11-06 09:02:00,
2013-11-06 04:07:00,48.7,45.9,30.27,ESE,107,2.0,8.0,38,0.00,,,0.00,0.0,meteohub,2013-11-06 09:07:00,
2013-11-06 04:12:00,49.1,45.9,30.27,SE,130,3.0,8.0,38,0.00,,,0.00,0.0,meteohub,2013-11-06 09:12:00,
2013-11-06 04:17:00,49.3,45.9,30.27,ESE,123,3.0,8.0,38,0.00,,,0.00,0.0,meteohub,2013-11-06 09:17:00,
2013-11-06 04:22:00,49.5,45.9,30.27,East,99,2.0,5.0,38,0.00,,,0.00,0.0,meteohub,2013-11-06 09:22:00,
2013-11-06 04:27:00,49.6,45.9,30.27,ESE,123,0.0,6.0,38,0.00,,,0.00,0.0,meteohub,2013-11-06 09:27:00,
2013-11-06 04:32:00,49.6,45.9,30.27,SE,128,3.0,6.0,38,0.00,,,0.00,0.0,meteohub,2013-11-06 09:32:00,
2013-11-06 04:37:00,49.6,45.9,30.27,SE,128,2.0,5.0,38,0.00,,,0.00,0.0,meteohub,2013-11-06 09:37:00,
2013-11-06 04:42:00,49.6,45.9,30.26,SE,129,3.0,5.0,38,0.00,,,0.00,0.0,meteohub,2013-11-06 09:42:00,
2013-11-06 04:47:00,49.6,45.9,30.27,SE,132,2.0,5.0,38,0.00,,,0.00,0.0,meteohub,2013-11-06 09:47:00,
2013-11-06 04:52:00,49.6,45.9,30.27,SE,124,2.0,5.0,38,0.00,,,0.00,0.0,meteohub,2013-11-06 09:52:00,
2013-11-06 04:57:00,49.5,45.9,30.26,ESE,122,1.0,7.0,38,0.00,,,0.00,0.0,meteohub,2013-11-06 09:57:00,
2013-11-06 05:02:00,49.5,45.9,30.26,East,95,3.0,7.0,38,0.00,,,0.00,0.0,meteohub,2013-11-06 10:02:00,
2013-11-06 05:07:00,49.5,45.9,30.26,SSE,154,1.0,8.0,38,0.00,,,0.00,0.0,meteohub,2013-11-06 10:07:00,
2013-11-06 05:12:00,49.5,45.9,30.26,ESE,109,2.0,8.0,38,0.00,,,0.00,0.0,meteohub,2013-11-06 10:12:00,
2013-11-06 05:17:00,49.5,45.9,30.26,ESE,109,2.0,8.0,38,0.00,,,0.00,0.0,meteohub,2013-11-06 10:17:00,
2013-11-06 05:22:00,49.5,45.9,30.26,SE,135,2.0,5.0,38,0.00,,,0.00,0.0,meteohub,2013-11-06 10:22:00,
2013-11-06 05:27:00,49.5,45.9,30.26,ESE,111,3.0,5.0,38,0.00,,,0.00,0.0,meteohub,2013-11-06 10:27:00,
2013-11-06 05:32:00,49.6,45.9,30.26,SE,124,3.0,5.0,38,0.00,,,0.00,0.0,meteohub,2013-11-06 10:32:00,
2013-11-06 05:37:00,49.8,45.9,30.26,East,95,3.0,5.0,38,0.00,,,0.00,0.0,meteohub,2013-11-06 10:37:00,
2013-11-06 05:42:00,50.2,45.9,30.26,SSE,149,1.0,5.0,38,0.00,,,0.00,0.0,meteohub,2013-11-06 10:42:00,
2013-11-06 05:47:00,50.2,46.6,30.26,SE,128,5.0,7.0,39,0.00,,,0.00,0.0,meteohub,2013-11-06 10:47:00,
2013-11-06 05:52:00,50.2,46.6,30.26,SSE,155,3.0,7.0,39,0.00,,,0.00,0.0,meteohub,2013-11-06 10:52:00,
2013-11-06 06:02:00,50.0,46.6,30.26,SE,130,6.0,7.0,39,0.00,,,0.00,0.0,meteohub,2013-11-06 11:02:00,
2013-11-06 06:07:00,49.8,46.8,30.26,ESE,113,4.0,7.0,39,0.00,,,0.00,0.0,meteohub,2013-11-06 11:07:00,
2013-11-06 06:12:00,49.8,46.8,30.26,SE,138,2.0,7.0,39,0.00,,,0.00,0.0,meteohub,2013-11-06 11:12:00,
2013-11-06 06:17:00,49.8,46.8,30.26,SE,131,1.0,7.0,39,0.00,,,0.00,0.0,meteohub,2013-11-06 11:17:00,
2013-11-06 06:22:00,49.6,46.8,30.25,ESE,109,4.0,7.0,39,0.00,,,0.00,0.0,meteohub,2013-11-06 11:22:00,
2013-11-06 06:27:00,49.8,46.8,30.25,ESE,119,5.0,5.0,39,0.00,,,0.00,0.0,meteohub,2013-11-06 11:27:00,
2013-11-06 06:32:00,49.8,46.8,30.25,East,97,3.0,8.0,39,0.00,,,0.00,0.0,meteohub,2013-11-06 11:32:00,
2013-11-06 06:37:00,49.6,46.8,30.25,ESE,113,7.0,8.0,39,0.00,,,0.00,0.0,meteohub,2013-11-06 11:37:00,
2013-11-06 06:42:00,49.6,46.8,30.25,SE,142,5.0,8.0,39,0.00,,,0.00,0.0,meteohub,2013-11-06 11:42:00,
2013-11-06 06:47:00,49.6,46.8,30.25,SE,124,3.0,8.0,39,0.00,,,0.00,0.0,meteohub,2013-11-06 11:47:00,
2013-11-06 06:52:00,49.6,46.8,30.25,SE,142,4.0,8.0,39,0.00,,,0.00,0.0,meteohub,2013-11-06 11:52:00,
2013-11-06 06:57:00,49.6,46.8,30.25,ESE,122,4.0,8.0,39,0.00,,,0.00,0.0,meteohub,2013-11-06 11:57:00,
2013-11-06 07:02:00,49.6,47.5,30.25,SSE,156,3.0,8.0,40,0.00,,,0.00,9.0,meteohub,2013-11-06 12:02:00,
2013-11-06 07:07:00,49.6,47.3,30.25,SE,142,3.0,8.0,40,0.00,,,0.00,12.0,meteohub,2013-11-06 12:07:00,
2013-11-06 07:12:00,49.6,47.3,30.25,ESE,112,3.0,8.0,40,0.00,,,0.00,21.0,meteohub,2013-11-06 12:12:00,
2013-11-06 07:17:00,49.6,47.3,30.25,East,98,6.0,8.0,40,0.00,,,0.00,35.0,meteohub,2013-11-06 12:17:00,
2013-11-06 07:22:00,49.6,47.3,30.25,ESE,112,2.0,10.0,40,0.00,,,0.00,51.0,meteohub,2013-11-06 12:22:00,
2013-11-06 07:27:00,49.8,47.3,30.25,ESE,107,1.0,10.0,40,0.00,,,0.00,47.0,meteohub,2013-11-06 12:27:00,
2013-11-06 07:32:00,49.8,47.3,30.25,East,100,3.0,10.0,40,0.00,,,0.00,60.0,meteohub,2013-11-06 12:32:00,
2013-11-06 07:37:00,50.0,47.3,30.25,ESE,115,4.0,9.0,40,0.00,,,0.00,49.0,meteohub,2013-11-06 12:37:00,
2013-11-06 07:42:00,50.0,47.5,30.25,SSE,150,1.0,9.0,40,0.00,,,0.00,83.0,meteohub,2013-11-06 12:42:00,
2013-11-06 07:47:00,50.4,48.0,30.25,SE,130,2.0,9.0,41,0.00,,,0.00,77.0,meteohub,2013-11-06 12:47:00,
2013-11-06 07:52:00,50.5,48.4,30.25,SE,142,6.0,8.0,41,0.00,,,0.00,79.0,meteohub,2013-11-06 12:52:00,
2013-11-06 07:57:00,50.5,48.4,30.25,SSE,148,2.0,8.0,41,0.00,,,0.00,142.0,meteohub,2013-11-06 12:57:00,
2013-11-06 08:02:00,50.7,48.4,30.25,NE,45,0.0,9.0,41,0.00,,,0.00,76.0,meteohub,2013-11-06 13:02:00,
2013-11-06 08:07:00,51.1,48.4,30.25,SE,143,2.0,11.0,41,0.00,,,0.00,149.0,meteohub,2013-11-06 13:07:00,
2013-11-06 08:12:00,51.4,48.4,30.25,SSE,148,4.0,11.0,41,0.00,,,0.00,113.0,meteohub,2013-11-06 13:12:00,
2013-11-06 08:17:00,51.6,48.4,30.25,ESE,104,7.0,11.0,41,0.00,,,0.00,149.0,meteohub,2013-11-06 13:17:00,
2013-11-06 08:22:00,52.0,48.4,30.25,SE,138,7.0,11.0,41,0.00,,,0.00,118.0,meteohub,2013-11-06 13:22:00,
2013-11-06 08:27:00,52.0,48.4,30.25,East,95,5.0,11.0,41,0.00,,,0.00,113.0,meteohub,2013-11-06 13:27:00,
2013-11-06 08:32:00,52.3,49.3,30.25,SE,140,3.0,11.0,42,0.00,,,0.00,306.0,meteohub,2013-11-06 13:32:00,
2013-11-06 08:37:00,53.1,49.3,30.25,ESE,107,7.0,11.0,42,0.00,,,0.00,137.0,meteohub,2013-11-06 13:37:00,
2013-11-06 08:42:00,53.2,49.3,30.25,East,99,3.0,10.0,42,0.00,,,0.00,158.0,meteohub,2013-11-06 13:42:00,
2013-11-06 08:47:00,53.4,48.7,30.25,SSE,153,2.0,9.0,41,0.00,,,0.00,183.0,meteohub,2013-11-06 13:47:00,
2013-11-06 08:52:00,54.0,48.7,30.25,ESE,102,4.0,9.0,41,0.00,,,0.00,396.0,meteohub,2013-11-06 13:52:00,
2013-11-06 08:57:00,54.5,48.7,30.25,SE,144,2.0,9.0,41,0.00,,,0.00,399.0,meteohub,2013-11-06 13:57:00,
2013-11-06 09:02:00,54.1,48.7,30.25,SE,138,3.0,10.0,41,0.00,,,0.00,153.0,meteohub,2013-11-06 14:02:00,
2013-11-06 09:07:00,54.1,49.5,30.25,ESE,118,7.0,11.0,42,0.00,,,0.00,318.0,meteohub,2013-11-06 14:07:00,
2013-11-06 09:12:00,55.0,49.5,30.25,SSE,158,4.0,11.0,42,0.00,,,0.00,457.0,meteohub,2013-11-06 14:12:00,
2013-11-06 09:17:00,54.7,49.5,30.25,ESE,112,4.0,11.0,42,0.00,,,0.00,251.0,meteohub,2013-11-06 14:17:00,
2013-11-06 09:22:00,54.3,49.6,30.25,East,92,3.0,10.0,42,0.00,,,0.00,151.0,meteohub,2013-11-06 14:22:00,
2013-11-06 09:27:00,54.1,49.6,30.25,SSE,159,0.0,10.0,42,0.00,,,0.00,151.0,meteohub,2013-11-06 14:27:00,
2013-11-06 09:32:00,54.1,49.6,30.25,SE,126,6.0,10.0,42,0.00,,,0.00,156.0,meteohub,2013-11-06 14:32:00,
2013-11-06 09:37:00,54.3,49.6,30.25,East,91,2.0,11.0,42,0.00,,,0.00,146.0,meteohub,2013-11-06 14:37:00,
2013-11-06 09:42:00,54.1,49.6,30.25,SSE,167,3.0,11.0,42,0.00,,,0.00,127.0,meteohub,2013-11-06 14:42:00,
2013-11-06 09:47:00,54.3,49.1,30.25,ESE,115,5.0,11.0,41,0.00,,,0.00,137.0,meteohub,2013-11-06 14:47:00,
2013-11-06 09:52:00,54.7,49.6,30.25,ENE,71,7.0,11.0,42,0.00,,,0.00,137.0,meteohub,2013-11-06 14:52:00,
2013-11-06 09:57:00,55.0,49.6,30.25,SE,126,3.0,11.0,42,0.00,,,0.00,169.0,meteohub,2013-11-06 14:57:00,
2013-11-06 10:02:00,55.6,49.6,30.25,SSE,165,3.0,11.0,42,0.00,,,0.00,251.0,meteohub,2013-11-06 15:02:00,
2013-11-06 10:07:00,56.3,49.6,30.24,SSE,159,3.0,10.0,42,0.00,,,0.00,183.0,meteohub,2013-11-06 15:07:00,
2013-11-06 10:12:00,56.1,49.6,30.24,ESE,120,1.0,11.0,42,0.00,,,0.00,237.0,meteohub,2013-11-06 15:12:00,
2013-11-06 10:17:00,56.1,49.6,30.24,SSE,155,4.0,11.0,42,0.00,,,0.00,279.0,meteohub,2013-11-06 15:17:00,
2013-11-06 10:22:00,55.8,49.6,30.24,SE,133,6.0,11.0,42,0.00,,,0.00,186.0,meteohub,2013-11-06 15:22:00,
2013-11-06 10:27:00,55.8,49.6,30.24,SSE,148,8.0,13.0,42,0.00,,,0.00,197.0,meteohub,2013-11-06 15:27:00,
2013-11-06 10:32:00,55.8,49.8,30.25,SSE,153,6.0,14.0,42,0.00,,,0.00,171.0,meteohub,2013-11-06 15:32:00,
2013-11-06 10:37:00,55.4,49.6,30.24,SE,132,4.0,14.0,42,0.00,,,0.00,244.0,meteohub,2013-11-06 15:37:00,
2013-11-06 10:42:00,55.4,49.6,30.24,SE,126,3.0,14.0,42,0.00,,,0.00,141.0,meteohub,2013-11-06 15:42:00,
2013-11-06 10:47:00,55.6,49.6,30.24,SE,128,3.0,12.0,42,0.00,,,0.00,615.0,meteohub,2013-11-06 15:47:00,
2013-11-06 10:52:00,56.7,49.6,30.24,ESE,119,7.0,12.0,42,0.00,,,0.00,622.0,meteohub,2013-11-06 15:52:00,
2013-11-06 10:57:00,57.2,49.8,30.24,SE,140,4.0,15.0,42,0.00,,,0.00,596.0,meteohub,2013-11-06 15:57:00,
2013-11-06 11:02:00,57.9,49.8,30.23,SE,128,12.0,15.0,42,0.00,,,0.00,596.0,meteohub,2013-11-06 16:02:00,
2013-11-06 11:07:00,57.6,49.3,30.24,SE,144,6.0,14.0,41,0.00,,,0.00,663.0,meteohub,2013-11-06 16:07:00,
2013-11-06 11:12:00,57.9,49.8,30.24,ESE,115,3.0,17.0,42,0.00,,,0.00,246.0,meteohub,2013-11-06 16:12:00,
2013-11-06 11:17:00,57.7,50.5,30.23,SSE,160,7.0,17.0,43,0.00,,,0.00,373.0,meteohub,2013-11-06 16:17:00,
2013-11-06 11:22:00,58.8,50.5,30.23,ESE,123,2.0,13.0,43,0.00,,,0.00,272.0,meteohub,2013-11-06 16:22:00,
2013-11-06 11:27:00,58.6,50.7,30.23,SSE,157,3.0,14.0,43,0.00,,,0.00,258.0,meteohub,2013-11-06 16:27:00,
2013-11-06 11:32:00,59.0,50.7,30.22,East,94,2.0,14.0,43,0.00,,,0.00,640.0,meteohub,2013-11-06 16:32:00,
2013-11-06 11:37:00,59.5,50.0,30.22,ESE,110,5.0,14.0,42,0.00,,,0.00,624.0,meteohub,2013-11-06 16:37:00,
2013-11-06 11:42:00,60.3,50.7,30.22,South,182,7.0,14.0,43,0.00,,,0.00,622.0,meteohub,2013-11-06 16:42:00,
2013-11-06 11:47:00,60.3,50.7,30.22,South,179,5.0,16.0,43,0.00,,,0.00,631.0,meteohub,2013-11-06 16:47:00,
2013-11-06 11:52:00,60.4,50.7,30.22,SE,131,8.0,16.0,43,0.00,,,0.00,710.0,meteohub,2013-11-06 16:52:00,
2013-11-06 11:57:00,60.6,50.7,30.21,SE,145,3.0,16.0,43,0.00,,,0.00,668.0,meteohub,2013-11-06 16:57:00,
2013-11-06 12:02:00,61.5,50.9,30.21,SSE,165,4.0,13.0,43,0.00,,,0.00,684.0,meteohub,2013-11-06 17:02:00,
2013-11-06 12:07:00,61.5,50.9,30.21,ESE,115,9.0,12.0,43,0.00,,,0.00,689.0,meteohub,2013-11-06 17:07:00,
2013-11-06 12:12:00,61.0,50.2,30.20,SE,143,2.0,15.0,42,0.00,,,0.00,737.0,meteohub,2013-11-06 17:12:00,
2013-11-06 12:17:00,61.5,50.2,30.20,SE,126,14.0,15.0,42,0.00,,,0.00,306.0,meteohub,2013-11-06 17:17:00,
2013-11-06 12:22:00,60.8,50.7,30.20,ESE,108,9.0,16.0,43,0.00,,,0.00,408.0,meteohub,2013-11-06 17:22:00,
2013-11-06 12:27:00,61.9,50.7,30.19,East,84,5.0,16.0,43,0.00,,,0.00,504.0,meteohub,2013-11-06 17:27:00,
2013-11-06 12:32:00,62.1,50.7,30.19,SSE,148,4.0,16.0,43,0.00,,,0.00,466.0,meteohub,2013-11-06 17:32:00,
2013-11-06 12:37:00,62.2,50.9,30.19,SE,146,4.0,14.0,43,0.00,,,0.00,712.0,meteohub,2013-11-06 17:37:00,
2013-11-06 12:42:00,62.4,50.9,30.18,SE,138,2.0,16.0,43,0.00,,,0.00,719.0,meteohub,2013-11-06 17:42:00,
2013-11-06 12:47:00,62.2,50.9,30.18,SE,145,3.0,16.0,43,0.00,,,0.00,652.0,meteohub,2013-11-06 17:47:00,
2013-11-06 12:52:00,62.1,50.2,30.18,SE,132,5.0,12.0,42,0.00,,,0.00,482.0,meteohub,2013-11-06 17:52:00,
2013-11-06 12:57:00,62.8,50.7,30.17,SE,134,2.0,12.0,43,0.00,,,0.00,770.0,meteohub,2013-11-06 17:57:00,
2013-11-06 13:02:00,62.4,50.7,30.17,SSW,194,7.0,11.0,43,0.00,,,0.00,538.0,meteohub,2013-11-06 18:02:00,
2013-11-06 13:07:00,62.1,50.7,30.17,South,181,7.0,11.0,43,0.00,,,0.00,236.0,meteohub,2013-11-06 18:07:00,
2013-11-06 13:12:00,61.5,50.9,30.17,SSW,198,8.0,11.0,43,0.00,,,0.00,313.0,meteohub,2013-11-06 18:12:00,
2013-11-06 13:17:00,61.5,50.9,30.17,South,176,4.0,11.0,43,0.00,,,0.00,357.0,meteohub,2013-11-06 18:17:00,
2013-11-06 13:22:00,61.9,50.9,30.16,SSW,192,4.0,11.0,43,0.00,,,0.00,411.0,meteohub,2013-11-06 18:22:00,
2013-11-06 13:27:00,63.0,50.9,30.16,SE,145,3.0,11.0,43,0.00,,,0.00,431.0,meteohub,2013-11-06 18:27:00,
2013-11-06 13:32:00,63.1,50.7,30.15,SSE,161,4.0,10.0,43,0.00,,,0.00,631.0,meteohub,2013-11-06 18:32:00,
2013-11-06 13:37:00,63.0,50.7,30.15,SW,233,6.0,10.0,43,0.00,,,0.00,475.0,meteohub,2013-11-06 18:37:00,
2013-11-06 13:42:00,63.7,50.9,30.15,South,180,2.0,10.0,43,0.00,,,0.00,390.0,meteohub,2013-11-06 18:42:00,
2013-11-06 13:47:00,62.8,50.9,30.14,SSE,166,6.0,10.0,43,0.00,,,0.00,353.0,meteohub,2013-11-06 18:47:00,
2013-11-06 13:52:00,62.4,50.9,30.14,SSW,199,3.0,9.0,43,0.00,,,0.00,352.0,meteohub,2013-11-06 18:52:00,
2013-11-06 13:57:00,62.4,51.1,30.14,SW,229,3.0,10.0,43,0.00,,,0.00,338.0,meteohub,2013-11-06 18:57:00,
2013-11-06 14:02:00,63.1,51.1,30.14,SSW,197,5.0,10.0,43,0.00,,,0.00,346.0,meteohub,2013-11-06 19:02:00,
2013-11-06 14:07:00,62.8,50.9,30.13,SE,134,2.0,10.0,43,0.00,,,0.00,258.0,meteohub,2013-11-06 19:07:00,
2013-11-06 14:12:00,63.1,50.9,30.13,SSW,211,0.0,7.0,43,0.00,,,0.00,294.0,meteohub,2013-11-06 19:12:00,
2013-11-06 14:17:00,63.3,51.1,30.13,WSW,242,6.0,7.0,43,0.00,,,0.00,265.0,meteohub,2013-11-06 19:17:00,
2013-11-06 14:22:00,63.1,51.6,30.12,SW,217,2.0,8.0,44,0.00,,,0.00,315.0,meteohub,2013-11-06 19:22:00,
2013-11-06 14:27:00,63.9,51.1,30.12,South,190,3.0,8.0,43,0.00,,,0.00,461.0,meteohub,2013-11-06 19:27:00,
2013-11-06 14:32:00,64.0,51.1,30.12,SSW,192,2.0,8.0,43,0.00,,,0.00,577.0,meteohub,2013-11-06 19:32:00,
2013-11-06 14:37:00,64.2,51.6,30.12,SE,134,2.0,7.0,44,0.00,,,0.00,485.0,meteohub,2013-11-06 19:37:00,
2013-11-06 14:42:00,65.1,51.6,30.12,SE,125,4.0,8.0,44,0.00,,,0.00,469.0,meteohub,2013-11-06 19:42:00,
2013-11-06 14:47:00,64.8,51.8,30.12,SW,215,1.0,8.0,44,0.00,,,0.00,461.0,meteohub,2013-11-06 19:47:00,
2013-11-06 14:52:00,64.2,52.3,30.11,SSW,197,4.0,8.0,45,0.00,,,0.00,462.0,meteohub,2013-11-06 19:52:00,
2013-11-06 14:57:00,65.1,51.8,30.11,WNW,282,0.0,8.0,44,0.00,,,0.00,487.0,meteohub,2013-11-06 19:57:00,
2013-11-06 15:02:00,65.3,51.8,30.11,SSE,157,1.0,7.0,44,0.00,,,0.00,118.0,meteohub,2013-11-06 20:02:00,
2013-11-06 15:07:00,64.2,52.3,30.11,South,173,3.0,5.0,45,0.00,,,0.00,183.0,meteohub,2013-11-06 20:07:00,
2013-11-06 15:12:00,63.9,51.8,30.11,South,182,2.0,7.0,44,0.00,,,0.00,100.0,meteohub,2013-11-06 20:12:00,
2013-11-06 15:17:00,63.7,51.8,30.11,SSE,149,4.0,7.0,44,0.00,,,0.00,135.0,meteohub,2013-11-06 20:17:00,
2013-11-06 15:22:00,63.5,51.8,30.11,SSE,165,1.0,10.0,44,0.00,,,0.00,148.0,meteohub,2013-11-06 20:22:00,
2013-11-06 15:27:00,63.7,51.1,30.11,SW,226,0.0,10.0,43,0.00,,,0.00,176.0,meteohub,2013-11-06 20:27:00,
2013-11-06 15:32:00,63.7,51.8,30.11,SW,236,3.0,10.0,44,0.00,,,0.00,195.0,meteohub,2013-11-06 20:32:00,
2013-11-06 15:37:00,63.9,51.8,30.11,SSW,213,7.0,7.0,44,0.00,,,0.00,345.0,meteohub,2013-11-06 20:37:00,
2013-11-06 15:42:00,64.0,52.3,30.11,South,182,5.0,10.0,45,0.00,,,0.00,355.0,meteohub,2013-11-06 20:42:00,
2013-11-06 15:47:00,63.9,51.8,30.10,South,172,0.0,10.0,44,0.00,,,0.00,288.0,meteohub,2013-11-06 20:47:00,
2013-11-06 15:52:00,63.9,51.8,30.10,SSW,196,6.0,10.0,44,0.00,,,0.00,142.0,meteohub,2013-11-06 20:52:00,
2013-11-06 15:57:00,63.7,51.8,30.10,South,188,0.0,8.0,44,0.00,,,0.00,65.0,meteohub,2013-11-06 20:57:00,
2013-11-06 16:02:00,63.3,51.6,30.10,SSW,201,0.0,6.0,44,0.00,,,0.00,83.0,meteohub,2013-11-06 21:02:00,
2013-11-06 16:07:00,63.1,51.4,30.11,South,179,3.0,10.0,44,0.00,,,0.00,90.0,meteohub,2013-11-06 21:07:00,
2013-11-06 16:12:00,63.0,51.4,30.10,SSW,209,5.0,10.0,44,0.00,,,0.00,67.0,meteohub,2013-11-06 21:12:00,
2013-11-06 16:17:00,63.0,51.4,30.10,SSW,200,4.0,10.0,44,0.00,,,0.00,132.0,meteohub,2013-11-06 21:17:00,
2013-11-06 16:22:00,63.3,51.4,30.10,South,181,3.0,10.0,44,0.00,,,0.00,200.0,meteohub,2013-11-06 21:22:00,
2013-11-06 16:27:00,63.7,51.4,30.10,WSW,239,0.0,9.0,44,0.00,,,0.00,42.0,meteohub,2013-11-06 21:27:00,
2013-11-06 16:32:00,63.1,51.4,30.10,SW,216,2.0,9.0,44,0.00,,,0.00,42.0,meteohub,2013-11-06 21:32:00,
2013-11-06 16:37:00,62.8,51.4,30.10,West,259,4.0,8.0,44,0.00,,,0.00,44.0,meteohub,2013-11-06 21:37:00,
2013-11-06 16:42:00,62.4,51.3,30.10,WSW,242,5.0,10.0,44,0.00,,,0.00,42.0,meteohub,2013-11-06 21:42:00,
2013-11-06 16:47:00,62.2,51.3,30.10,South,187,3.0,10.0,44,0.00,,,0.00,42.0,meteohub,2013-11-06 21:47:00,
2013-11-06 16:52:00,62.2,51.4,30.10,South,184,0.0,10.0,44,0.00,,,0.00,35.0,meteohub,2013-11-06 21:52:00,
2013-11-06 16:57:00,62.1,51.4,30.09,SSE,166,2.0,8.0,44,0.00,,,0.00,23.0,meteohub,2013-11-06 21:57:00,
2013-11-06 17:02:00,61.9,51.4,30.09,SE,144,2.0,7.0,44,0.00,,,0.00,40.0,meteohub,2013-11-06 22:02:00,
2013-11-06 17:07:00,61.5,50.9,30.09,South,175,2.0,6.0,43,0.00,,,0.00,39.0,meteohub,2013-11-06 22:07:00,
2013-11-06 17:17:00,61.2,51.3,30.09,SE,138,6.0,6.0,44,0.00,,,0.00,14.0,meteohub,2013-11-06 22:17:00,
2013-11-06 17:22:00,60.6,51.3,30.09,SE,129,3.0,6.0,44,0.00,,,0.00,11.0,meteohub,2013-11-06 22:22:00,
2013-11-06 17:27:00,60.4,51.3,30.09,SE,141,1.0,6.0,44,0.00,,,0.00,7.0,meteohub,2013-11-06 22:27:00,
2013-11-06 17:32:00,60.1,51.3,30.09,SSE,158,1.0,6.0,44,0.00,,,0.00,5.0,meteohub,2013-11-06 22:32:00,
2013-11-06 17:37:00,59.5,51.3,30.09,SE,143,2.0,6.0,44,0.00,,,0.00,0.0,meteohub,2013-11-06 22:37:00,
2013-11-06 17:42:00,59.4,51.3,30.09,SSE,149,2.0,4.0,44,0.00,,,0.00,0.0,meteohub,2013-11-06 22:42:00,
2013-11-06 17:47:00,59.2,50.7,30.09,SE,144,1.0,3.0,43,0.00,,,0.00,0.0,meteohub,2013-11-06 22:47:00,
2013-11-06 17:52:00,58.8,50.5,30.09,SE,136,2.0,3.0,43,0.00,,,0.00,0.0,meteohub,2013-11-06 22:52:00,
2013-11-06 17:57:00,58.6,50.9,30.09,SE,129,2.0,4.0,44,0.00,,,0.00,0.0,meteohub,2013-11-06 22:57:00,
2013-11-06 18:02:00,58.3,50.9,30.09,SSE,157,1.0,4.0,44,0.00,,,0.00,0.0,meteohub,2013-11-06 23:02:00,
2013-11-06 18:07:00,57.9,50.9,30.09,SE,126,1.0,4.0,44,0.00,,,0.00,0.0,meteohub,2013-11-06 23:07:00,
2013-11-06 18:12:00,57.7,50.9,30.09,SE,141,2.0,5.0,44,0.00,,,0.00,0.0,meteohub,2013-11-06 23:12:00,
2013-11-06 18:17:00,57.6,50.9,30.09,SE,135,2.0,5.0,44,0.00,,,0.00,0.0,meteohub,2013-11-06 23:17:00,
2013-11-06 18:22:00,57.4,50.9,30.09,SE,129,3.0,4.0,44,0.00,,,0.00,0.0,meteohub,2013-11-06 23:22:00,
2013-11-06 18:27:00,57.2,50.9,30.09,SE,135,0.0,5.0,44,0.00,,,0.00,0.0,meteohub,2013-11-06 23:27:00,
2013-11-06 18:32:00,56.8,50.4,30.09,SE,138,1.0,5.0,43,0.00,,,0.00,0.0,meteohub,2013-11-06 23:32:00,
2013-11-06 18:37:00,56.7,50.2,30.09,SE,138,0.0,5.0,43,0.00,,,0.00,0.0,meteohub,2013-11-06 23:37:00,
2013-11-06 18:42:00,56.5,50.7,30.08,SE,140,1.0,3.0,44,0.00,,,0.00,0.0,meteohub,2013-11-06 23:42:00,
2013-11-06 18:47:00,56.1,50.7,30.09,SE,124,1.0,3.0,44,0.00,,,0.00,0.0,meteohub,2013-11-06 23:47:00,
2013-11-06 18:52:00,55.8,50.7,30.09,SE,124,2.0,3.0,44,0.00,,,0.00,0.0,meteohub,2013-11-06 23:52:00,
2013-11-06 18:57:00,55.8,50.7,30.09,SE,142,1.0,4.0,44,0.00,,,0.00,0.0,meteohub,2013-11-06 23:57:00,
2013-11-06 19:02:00,55.9,50.7,30.09,SE,142,0.0,4.0,44,0.00,,,0.00,0.0,meteohub,2013-11-07 00:02:00,
2013-11-06 19:07:00,55.4,50.7,30.09,SE,142,0.0,4.0,44,0.00,,,0.00,0.0,meteohub,2013-11-07 00:07:00,
2013-11-06 19:12:00,55.0,50.7,30.09,SE,142,0.0,4.0,44,0.00,,,0.00,0.0,meteohub,2013-11-07 00:12:00,
2013-11-06 19:17:00,54.9,50.0,30.09,SE,142,0.0,3.0,43,0.00,,,0.00,0.0,meteohub,2013-11-07 00:17:00,
2013-11-06 19:22:00,54.7,49.8,30.09,SE,142,0.0,2.0,43,0.00,,,0.00,0.0,meteohub,2013-11-07 00:22:00,
2013-11-06 19:27:00,54.3,50.5,30.09,SE,142,2.0,2.0,44,0.00,,,0.00,0.0,meteohub,2013-11-07 00:27:00,
2013-11-06 19:32:00,54.3,50.5,30.09,SE,142,0.0,3.0,44,0.00,,,0.00,0.0,meteohub,2013-11-07 00:32:00,
2013-11-06 19:37:00,54.1,50.5,30.08,SE,141,0.0,3.0,44,0.00,,,0.00,0.0,meteohub,2013-11-07 00:37:00,
2013-11-06 19:42:00,53.8,50.5,30.08,East,88,0.0,3.0,44,0.00,,,0.00,0.0,meteohub,2013-11-07 00:42:00,
2013-11-06 19:47:00,52.9,50.5,30.08,East,88,0.0,2.0,44,0.00,,,0.00,0.0,meteohub,2013-11-07 00:47:00,
2013-11-06 19:52:00,52.5,50.5,30.09,East,88,0.0,2.0,44,0.00,,,0.00,0.0,meteohub,2013-11-07 00:52:00,
2013-11-06 19:57:00,52.3,50.5,30.08,East,88,0.0,0.0,44,0.00,,,0.00,0.0,meteohub,2013-11-07 00:57:00,
2013-11-06 20:02:00,52.3,50.5,30.08,East,88,0.0,0.0,44,0.00,,,0.00,0.0,meteohub,2013-11-07 01:02:00,
2013-11-06 20:07:00,52.3,50.7,30.08,East,88,0.0,0.0,44,0.00,,,0.00,0.0,meteohub,2013-11-07 01:07:00,
2013-11-06 20:12:00,52.2,49.8,30.08,East,88,0.0,0.0,43,0.00,,,0.00,0.0,meteohub,2013-11-07 01:12:00,
2013-11-06 20:17:00,51.4,50.4,30.08,East,88,0.0,0.0,44,0.00,,,0.00,0.0,meteohub,2013-11-07 01:17:00,
2013-11-06 20:22:00,52.0,50.4,30.08,East,88,0.0,0.0,44,0.00,,,0.00,0.0,meteohub,2013-11-07 01:22:00,
2013-11-06 20:27:00,51.3,50.4,30.08,East,88,0.0,0.0,44,0.00,,,0.00,0.0,meteohub,2013-11-07 01:27:00,
2013-11-06 20:32:00,51.3,50.4,30.08,NE,50,2.0,0.0,44,0.00,,,0.00,0.0,meteohub,2013-11-07 01:32:00,
2013-11-06 20:37:00,51.4,50.4,30.08,ENE,63,0.0,3.0,44,0.00,,,0.00,0.0,meteohub,2013-11-07 01:37:00,
2013-11-06 20:42:00,51.4,50.4,30.08,ENE,66,0.0,3.0,44,0.00,,,0.00,0.0,meteohub,2013-11-07 01:42:00,
2013-11-06 20:47:00,51.3,50.5,30.08,ENE,66,0.0,3.0,44,0.00,,,0.00,0.0,meteohub,2013-11-07 01:47:00,
2013-11-06 20:52:00,51.1,50.5,30.08,ENE,66,0.0,2.0,44,0.00,,,0.00,0.0,meteohub,2013-11-07 01:52:00,
2013-11-06 20:57:00,50.4,50.5,30.08,ENE,66,0.0,0.0,44,0.00,,,0.00,0.0,meteohub,2013-11-07 01:57:00,
2013-11-06 21:02:00,50.2,49.8,30.08,ENE,66,0.0,0.0,43,0.00,,,0.00,0.0,meteohub,2013-11-07 02:02:00,
2013-11-06 21:07:00,50.0,50.4,30.07,ENE,66,0.0,0.0,44,0.00,,,0.00,0.0,meteohub,2013-11-07 02:07:00,
2013-11-06 21:12:00,50.0,50.4,30.07,ENE,66,0.0,0.0,44,0.00,,,0.00,0.0,meteohub,2013-11-07 02:12:00,
2013-11-06 21:17:00,49.6,50.4,30.07,ENE,66,0.0,0.0,44,0.00,,,0.00,0.0,meteohub,2013-11-07 02:17:00,
2013-11-06 21:22:00,49.8,50.4,30.07,ENE,66,0.0,0.0,44,0.00,,,0.00,0.0,meteohub,2013-11-07 02:22:00,
2013-11-06 21:27:00,50.0,50.4,30.07,ENE,66,0.0,0.0,44,0.00,,,0.00,0.0,meteohub,2013-11-07 02:27:00,
2013-11-06 21:32:00,49.6,50.4,30.07,ENE,66,0.0,0.0,44,0.00,,,0.00,0.0,meteohub,2013-11-07 02:32:00,
2013-11-06 21:37:00,48.7,50.4,30.07,ENE,66,0.0,0.0,44,0.00,,,0.00,0.0,meteohub,2013-11-07 02:37:00,
2013-11-06 21:42:00,48.4,50.4,30.07,ENE,66,0.0,0.0,44,0.00,,,0.00,0.0,meteohub,2013-11-07 02:42:00,
2013-11-06 21:47:00,48.2,50.4,30.07,ENE,66,0.0,0.0,44,0.00,,,0.00,0.0,meteohub,2013-11-07 02:47:00,
2013-11-06 21:52:00,48.6,50.4,30.07,ENE,66,0.0,0.0,44,0.00,,,0.00,0.0,meteohub,2013-11-07 02:52:00,
2013-11-06 21:57:00,49.5,50.4,30.07,ENE,66,0.0,0.0,44,0.00,,,0.00,0.0,meteohub,2013-11-07 02:57:00,
2013-11-06 22:02:00,49.5,50.4,30.08,ENE,65,1.0,0.0,44,0.00,,,0.00,0.0,meteohub,2013-11-07 03:02:00,
2013-11-06 22:07:00,48.4,50.4,30.07,ENE,65,0.0,2.0,44,0.00,,,0.00,0.0,meteohub,2013-11-07 03:07:00,
2013-11-06 22:12:00,48.6,49.6,30.07,ENE,65,0.0,2.0,43,0.00,,,0.00,0.0,meteohub,2013-11-07 03:12:00,
2013-11-06 22:17:00,48.6,49.6,30.07,ENE,65,0.0,2.0,43,0.00,,,0.00,0.0,meteohub,2013-11-07 03:17:00,
2013-11-06 22:22:00,48.9,50.4,30.06,ENE,65,0.0,0.0,44,0.00,,,0.00,0.0,meteohub,2013-11-07 03:22:00,
2013-11-06 22:27:00,49.3,50.0,30.06,ENE,65,0.0,0.0,44,0.00,,,0.00,0.0,meteohub,2013-11-07 03:27:00,
2013-11-06 22:32:00,49.8,50.4,30.06,ENE,65,0.0,0.0,44,0.00,,,0.00,0.0,meteohub,2013-11-07 03:32:00,
2013-11-06 22:37:00,50.0,50.4,30.06,ENE,65,0.0,0.0,44,0.00,,,0.00,0.0,meteohub,2013-11-07 03:37:00,
2013-11-06 22:42:00,50.0,50.4,30.06,ENE,65,0.0,0.0,44,0.00,,,0.00,0.0,meteohub,2013-11-07 03:42:00,
2013-11-06 22:47:00,49.8,50.4,30.06,ENE,67,0.0,0.0,44,0.00,,,0.00,0.0,meteohub,2013-11-07 03:47:00,
2013-11-06 22:52:00,49.8,50.4,30.05,ESE,117,1.0,2.0,44,0.00,,,0.00,0.0,meteohub,2013-11-07 03:52:00,
2013-11-06 22:57:00,49.8,50.4,30.05,ESE,117,0.0,2.0,44,0.00,,,0.00,0.0,meteohub,2013-11-07 03:57:00,
2013-11-06 23:02:00,50.2,50.4,30.05,ESE,117,0.0,2.0,44,0.00,,,0.00,0.0,meteohub,2013-11-07 04:02:00,
2013-11-06 23:07:00,49.5,50.4,30.05,ESE,117,0.0,2.0,44,0.00,,,0.00,0.0,meteohub,2013-11-07 04:07:00,
2013-11-06 23:12:00,48.9,50.4,30.05,ESE,117,2.0,0.0,44,0.00,,,0.00,0.0,meteohub,2013-11-07 04:12:00,
2013-11-06 23:17:00,48.2,50.4,30.04,ESE,117,0.0,2.0,44,0.00,,,0.00,0.0,meteohub,2013-11-07 04:17:00,
2013-11-06 23:22:00,47.8,50.4,30.04,ESE,117,0.0,2.0,44,0.00,,,0.00,0.0,meteohub,2013-11-07 04:22:00,
2013-11-06 23:27:00,47.5,50.4,30.04,ESE,117,0.0,2.0,44,0.00,,,0.00,0.0,meteohub,2013-11-07 04:27:00,
2013-11-06 23:32:00,47.1,49.6,30.04,ESE,117,0.0,0.0,43,0.00,,,0.00,0.0,meteohub,2013-11-07 04:32:00,
2013-11-06 23:37:00,46.9,49.6,30.04,ESE,117,0.0,1.0,43,0.00,,,0.00,0.0,meteohub,2013-11-07 04:37:00,
2013-11-06 23:42:00,46.9,49.5,30.04,ESE,117,0.0,1.0,43,0.00,,,0.00,0.0,meteohub,2013-11-07 04:42:00,
2013-11-06 23:47:00,47.1,49.5,30.04,ESE,117,0.0,1.0,43,0.00,,,0.00,0.0,meteohub,2013-11-07 04:47:00,
2013-11-06 23:52:00,47.5,49.5,30.04,SSE,168,2.0,2.0,43,0.00,,,0.00,0.0,meteohub,2013-11-07 04:52:00,
2013-11-06 23:57:00,47.3,50.0,30.04,SSE,168,0.0,3.0,44,0.00,,,0.00,0.0,meteohub,2013-11-07 04:57:00,